GMA113 UATE-UARR

Flight info

Callsign GMA113
Flight time 1h 18m
Altitude 37000
Route PIRIM N60 KOLIB/N0455F380 N60 LOKOZ M158 DOKUS
Aircraft B738/M-VGDW/C

Departure

Time 2026-05-09 09:23
Airport Aktau International Airport (UATE)

Arrival

Time 2026-05-09 10:41
Airport Manshuk Mametova International Airport (UARR)
Time Latitude Longitude Altitude Speed Heading
2026-05-09 08:36 43.85579 51.09104 70 ft 0 kts 212°
2026-05-09 09:14 43.85596 51.09119 68 ft 4 kts 204°
2026-05-09 09:14 43.85622 51.09129 69 ft 4 kts 178°
2026-05-09 09:14 43.85647 51.09120 65 ft 4 kts 146°
2026-05-09 09:14 43.85665 51.09097 61 ft 2 kts 123°
2026-05-09 09:15 43.85665 51.09095 61 ft 0 kts 122°
2026-05-09 09:17 43.85665 51.09097 61 ft 1 kts 123°
2026-05-09 09:18 43.85650 51.09128 64 ft 7 kts 123°
2026-05-09 09:18 43.85613 51.09208 70 ft 12 kts 122°
2026-05-09 09:18 43.85656 51.09306 68 ft 15 kts 33°
2026-05-09 09:18 43.85729 51.09371 68 ft 0 kts 33°
2026-05-09 09:19 43.85730 51.09372 68 ft 3 kts 33°
2026-05-09 09:19 43.85762 51.09400 68 ft 7 kts 33°
2026-05-09 09:20 43.85809 51.09448 62 ft 12 kts 52°
2026-05-09 09:20 43.85764 51.09616 69 ft 27 kts 123°
2026-05-09 09:20 43.85658 51.09842 65 ft 28 kts 123°
2026-05-09 09:20 43.85554 51.10065 67 ft 27 kts 123°
2026-05-09 09:21 43.85457 51.10273 66 ft 25 kts 123°
2026-05-09 09:21 43.85367 51.10467 67 ft 23 kts 122°
2026-05-09 09:21 43.85305 51.10564 68 ft 13 kts 160°
2026-05-09 09:21 43.85249 51.10609 71 ft 9 kts 105°
2026-05-09 09:22 43.85289 51.10630 73 ft 9 kts 319°
2026-05-09 09:22 43.85312 51.10586 67 ft 5 kts 303°
2026-05-09 09:22 43.85334 51.10538 67 ft 11 kts 302°
2026-05-09 09:22 43.85503 51.10174 63 ft 81 kts 303°
2026-05-09 09:23 43.85928 51.09261 68 ft 142 kts 302°
2026-05-09 09:23 43.86514 51.08004 509 ft 154 kts 300°
2026-05-09 09:23 43.87086 51.06867 1482 ft 141 kts 314°
2026-05-09 09:23 43.88051 51.06475 2064 ft 155 kts
2026-05-09 09:24 43.89124 51.06753 2715 ft 161 kts
2026-05-09 09:24 43.90286 51.07051 3122 ft 184 kts
2026-05-09 09:24 43.91633 51.07389 3372 ft 209 kts
2026-05-09 09:24 43.93126 51.07764 3640 ft 224 kts
2026-05-09 09:25 43.94705 51.08161 3856 ft 246 kts
2026-05-09 09:25 43.96437 51.08595 4391 ft 256 kts
2026-05-09 09:25 43.98193 51.09035 5210 ft 257 kts
2026-05-09 09:25 43.99966 51.09479 6015 ft 259 kts
2026-05-09 09:26 44.01746 51.09923 6863 ft 261 kts
2026-05-09 09:26 44.03548 51.10372 7645 ft 265 kts
2026-05-09 09:26 44.05375 51.10825 8471 ft 268 kts
2026-05-09 09:26 44.07214 51.11281 9324 ft 269 kts
2026-05-09 09:27 44.09070 51.11741 10149 ft 272 kts
2026-05-09 09:27 44.10995 51.12217 10524 ft 293 kts
2026-05-09 09:27 44.13081 51.12732 10841 ft 313 kts
2026-05-09 09:27 44.15251 51.13268 11478 ft 320 kts 10°
2026-05-09 09:28 44.17465 51.13816 12261 ft 324 kts 10°
2026-05-09 09:28 44.19661 51.14360 13071 ft 327 kts 10°
2026-05-09 09:28 44.21916 51.14919 13881 ft 331 kts 10°
2026-05-09 09:28 44.24205 51.15486 14610 ft 336 kts 10°
2026-05-09 09:29 44.26511 51.16058 15408 ft 338 kts 10°
2026-05-09 09:29 44.28844 51.16637 16156 ft 343 kts 10°
2026-05-09 09:29 44.31212 51.17225 16892 ft 348 kts 10°
2026-05-09 09:29 44.33609 51.17821 17624 ft 352 kts 10°
2026-05-09 09:30 44.36041 51.18426 18367 ft 357 kts 10°
2026-05-09 09:30 44.38499 51.19038 19019 ft 361 kts 10°
2026-05-09 09:30 44.40987 51.19658 19680 ft 364 kts 10°
2026-05-09 09:30 44.43497 51.20284 20315 ft 369 kts 10°
2026-05-09 09:31 44.46044 51.20919 20953 ft 373 kts 10°
2026-05-09 09:31 44.48574 51.21551 21572 ft 377 kts 10°
2026-05-09 09:31 44.51165 51.22199 22192 ft 380 kts
2026-05-09 09:32 44.56429 51.23516 23370 ft 388 kts
2026-05-09 09:32 44.59104 51.24187 23899 ft 392 kts
2026-05-09 09:32 44.61799 51.24863 24426 ft 394 kts
2026-05-09 09:32 44.64511 51.25545 24929 ft 397 kts
2026-05-09 09:33 44.67240 51.26231 25392 ft 401 kts
2026-05-09 09:33 44.69989 51.26923 25956 ft 401 kts
2026-05-09 09:33 44.72751 51.27619 26415 ft 404 kts
2026-05-09 09:33 44.75535 51.28321 26839 ft 408 kts
2026-05-09 09:34 44.78340 51.29029 27288 ft 411 kts 10°
2026-05-09 09:34 44.81170 51.29736 27731 ft 414 kts
2026-05-09 09:34 44.84025 51.30372 28188 ft 416 kts
2026-05-09 09:36 45.04528 51.34566 30751 ft 435 kts
2026-05-09 09:36 45.07505 51.35189 31355 ft 430 kts
2026-05-09 09:36 45.10457 51.35809 31781 ft 429 kts
2026-05-09 09:37 45.13417 51.36431 32109 ft 431 kts
2026-05-09 09:37 45.16387 51.37055 32452 ft 432 kts
2026-05-09 09:37 45.19358 51.37680 32900 ft 430 kts
2026-05-09 09:37 45.22312 51.38302 33329 ft 429 kts
2026-05-09 09:38 45.25274 51.38926 33592 ft 432 kts
2026-05-09 09:38 45.28256 51.39555 33873 ft 434 kts
2026-05-09 09:38 45.31233 51.40185 34233 ft 433 kts
2026-05-09 09:38 45.34214 51.40817 34543 ft 433 kts
2026-05-09 09:39 45.37193 51.41446 34751 ft 435 kts
2026-05-09 09:39 45.40200 51.42082 34938 ft 437 kts
2026-05-09 09:39 45.43217 51.42722 35175 ft 438 kts
2026-05-09 09:39 45.46241 51.43364 35468 ft 438 kts
2026-05-09 09:40 45.49259 51.44005 35690 ft 440 kts
2026-05-09 09:40 45.52298 51.44652 35901 ft 442 kts
2026-05-09 09:40 45.55298 51.45291 36136 ft 443 kts
2026-05-09 09:40 45.58349 51.45942 36392 ft 443 kts
2026-05-09 09:41 45.61410 51.46596 36636 ft 444 kts
2026-05-09 09:41 45.64467 51.47249 36850 ft 445 kts
2026-05-09 09:41 45.67532 51.47904 37070 ft 446 kts
2026-05-09 09:41 45.70606 51.48563 37297 ft 447 kts
2026-05-09 09:42 45.73684 51.49225 37522 ft 447 kts
2026-05-09 09:42 45.76767 51.49888 37736 ft 448 kts
2026-05-09 09:42 45.79855 51.50554 37952 ft 449 kts
2026-05-09 09:43 45.86075 51.51897 38024 ft 454 kts
2026-05-09 09:43 45.92321 51.53249 38003 ft 451 kts
2026-05-09 09:44 45.98442 51.54578 38006 ft 446 kts
2026-05-09 09:44 46.04574 51.55911 38005 ft 445 kts
2026-05-09 09:45 46.10706 51.57246 38006 ft 445 kts
2026-05-09 09:45 46.16831 51.58584 38008 ft 445 kts
2026-05-09 09:46 46.22962 51.59925 38000 ft 446 kts
2026-05-09 09:46 46.29102 51.61272 37994 ft 446 kts
2026-05-09 09:47 46.35253 51.62625 37996 ft 447 kts
2026-05-09 09:47 46.41365 51.63972 37993 ft 447 kts
2026-05-09 09:48 46.47559 51.65333 37987 ft 448 kts
2026-05-09 09:48 46.53686 51.66673 37983 ft 447 kts
2026-05-09 09:49 46.59832 51.68021 37980 ft 447 kts
2026-05-09 09:49 46.65991 51.69376 37976 ft 447 kts
2026-05-09 09:50 46.72134 51.70731 37980 ft 446 kts
2026-05-09 09:50 46.78271 51.72088 37968 ft 445 kts
2026-05-09 09:51 46.84400 51.73446 37966 ft 445 kts
2026-05-09 09:51 46.90515 51.74805 37955 ft 444 kts
2026-05-09 09:52 46.96622 51.76166 37963 ft 443 kts
2026-05-09 09:52 47.02721 51.77524 37953 ft 443 kts
2026-05-09 09:53 47.08816 51.78888 37953 ft 443 kts
2026-05-09 09:53 47.14875 51.80152 37931 ft 442 kts
2026-05-09 09:54 47.20998 51.79951 37941 ft 440 kts 355°
2026-05-09 09:54 47.27107 51.79464 37940 ft 440 kts 355°
2026-05-09 09:55 47.33225 51.79038 37938 ft 440 kts 356°
2026-05-09 09:55 47.39349 51.78663 37943 ft 441 kts 356°
2026-05-09 09:56 47.45487 51.78301 37943 ft 441 kts 356°
2026-05-09 09:56 47.51633 51.77939 37951 ft 442 kts 356°
2026-05-09 09:57 47.57777 51.77569 37940 ft 442 kts 356°
2026-05-09 09:57 47.63900 51.77203 37934 ft 443 kts 356°
2026-05-09 09:58 47.70097 51.76834 37944 ft 443 kts 356°
2026-05-09 09:58 47.76220 51.76466 37939 ft 443 kts 356°
2026-05-09 09:59 47.82392 51.76096 37933 ft 443 kts 357°
2026-05-09 09:59 47.88557 51.75722 37938 ft 443 kts 355°
2026-05-09 10:00 47.94728 51.75343 37937 ft 443 kts 355°
2026-05-09 10:00 47.99852 51.75022 37935 ft 444 kts 355°
2026-05-09 10:01 48.06022 51.74634 37942 ft 443 kts 356°
2026-05-09 10:01 48.12181 51.74249 37934 ft 443 kts 356°
2026-05-09 10:02 48.18347 51.73865 37938 ft 443 kts 356°
2026-05-09 10:02 48.24516 51.73478 37944 ft 443 kts 356°
2026-05-09 10:03 48.30663 51.73091 37938 ft 442 kts 356°
2026-05-09 10:03 48.36781 51.72705 37941 ft 442 kts 356°
2026-05-09 10:04 48.42914 51.72317 37940 ft 441 kts 355°
2026-05-09 10:04 48.49042 51.71929 37941 ft 441 kts 356°
2026-05-09 10:05 48.55170 51.71540 37946 ft 440 kts 355°
2026-05-09 10:05 48.61298 51.71150 37944 ft 440 kts 355°
2026-05-09 10:06 48.67423 51.70759 37946 ft 440 kts 355°
2026-05-09 10:06 48.73533 51.70368 37945 ft 440 kts 355°
2026-05-09 10:07 48.79619 51.69977 37949 ft 440 kts 355°
2026-05-09 10:07 48.85745 51.69582 37951 ft 441 kts 355°
2026-05-09 10:08 48.91875 51.69187 37951 ft 441 kts 355°
2026-05-09 10:08 48.97987 51.68796 37564 ft 439 kts 355°
2026-05-09 10:08 49.01032 51.68599 37122 ft 437 kts 355°
2026-05-09 10:09 49.04057 51.68402 36613 ft 434 kts 355°
2026-05-09 10:09 49.07065 51.68205 36145 ft 431 kts 356°
2026-05-09 10:09 49.10045 51.68013 35770 ft 426 kts 355°
2026-05-09 10:09 49.12994 51.67821 35353 ft 423 kts 355°
2026-05-09 10:10 49.15928 51.67629 34951 ft 419 kts 356°
2026-05-09 10:10 49.18826 51.67439 34551 ft 416 kts 356°
2026-05-09 10:10 49.21706 51.67250 34157 ft 412 kts 356°
2026-05-09 10:10 49.24558 51.67064 33729 ft 409 kts 356°
2026-05-09 10:11 49.27393 51.66878 33275 ft 406 kts 356°
2026-05-09 10:11 49.30200 51.66694 32886 ft 402 kts 355°
2026-05-09 10:11 49.32982 51.66511 32486 ft 398 kts 355°
2026-05-09 10:11 49.35738 51.66329 32106 ft 394 kts 356°
2026-05-09 10:12 49.38463 51.66148 31706 ft 391 kts 356°
2026-05-09 10:12 49.41142 51.65970 31338 ft 387 kts 356°
2026-05-09 10:12 49.43818 51.65791 30962 ft 384 kts 355°
2026-05-09 10:12 49.46482 51.65614 30603 ft 381 kts 356°
2026-05-09 10:13 49.49120 51.65441 30223 ft 378 kts 356°
2026-05-09 10:13 49.51741 51.65269 29832 ft 375 kts 356°
2026-05-09 10:13 49.54338 51.65097 29414 ft 372 kts 356°
2026-05-09 10:13 49.56915 51.64926 29041 ft 368 kts 356°
2026-05-09 10:14 49.59463 51.64756 28644 ft 364 kts 355°
2026-05-09 10:14 49.61986 51.64586 28281 ft 360 kts 355°
2026-05-09 10:14 49.64474 51.64420 27894 ft 357 kts 355°
2026-05-09 10:14 49.66949 51.64256 27523 ft 353 kts 355°
2026-05-09 10:15 49.69366 51.64094 27155 ft 351 kts 356°
2026-05-09 10:15 49.71790 51.63932 26785 ft 348 kts 355°
2026-05-09 10:15 49.74206 51.63771 26421 ft 346 kts 355°
2026-05-09 10:15 49.76599 51.63610 26055 ft 343 kts 355°
2026-05-09 10:16 49.78978 51.63450 25695 ft 341 kts 355°
2026-05-09 10:16 49.81341 51.63291 25333 ft 339 kts 356°
2026-05-09 10:16 49.83689 51.63134 24978 ft 337 kts 356°
2026-05-09 10:16 49.86026 51.62977 24631 ft 335 kts 356°
2026-05-09 10:17 49.88348 51.62820 24279 ft 333 kts 355°
2026-05-09 10:17 49.90660 51.62664 23928 ft 332 kts 356°
2026-05-09 10:17 49.92963 51.62509 23574 ft 330 kts 355°
2026-05-09 10:17 49.95257 51.62354 23170 ft 329 kts 355°
2026-05-09 10:18 49.97535 51.62200 22780 ft 327 kts 355°
2026-05-09 10:18 49.99803 51.62047 22420 ft 324 kts 355°
2026-05-09 10:18 50.02046 51.61895 22061 ft 322 kts 355°
2026-05-09 10:18 50.04278 51.61744 21712 ft 319 kts 355°
2026-05-09 10:19 50.06487 51.61594 21370 ft 317 kts 355°
2026-05-09 10:19 50.08678 51.61445 21035 ft 315 kts 355°
2026-05-09 10:19 50.10861 51.61297 20695 ft 312 kts 355°
2026-05-09 10:19 50.13022 51.61149 20352 ft 310 kts 355°
2026-05-09 10:20 50.15170 51.61003 20015 ft 308 kts 355°
2026-05-09 10:20 50.17307 51.60857 19677 ft 307 kts 355°
2026-05-09 10:20 50.19432 51.60712 19357 ft 305 kts 355°
2026-05-09 10:20 50.21523 51.60569 19022 ft 303 kts 355°
2026-05-09 10:21 50.23629 51.60425 18700 ft 302 kts 355°
2026-05-09 10:21 50.25727 51.60281 18369 ft 301 kts 355°
2026-05-09 10:21 50.27817 51.60138 17998 ft 300 kts 355°
2026-05-09 10:21 50.29895 51.59996 17649 ft 298 kts 355°
2026-05-09 10:22 50.31959 51.59854 17300 ft 296 kts 355°
2026-05-09 10:22 50.33970 51.59716 16970 ft 294 kts 355°
2026-05-09 10:22 50.36008 51.59576 16640 ft 292 kts 355°
2026-05-09 10:22 50.38027 51.59437 16314 ft 290 kts 355°
2026-05-09 10:23 50.40030 51.59300 15992 ft 288 kts 355°
2026-05-09 10:23 50.42036 51.59161 15674 ft 286 kts 355°
2026-05-09 10:23 50.44022 51.59028 15367 ft 285 kts 355°
2026-05-09 10:23 50.45999 51.58899 15039 ft 284 kts 355°
2026-05-09 10:24 50.47949 51.58774 14716 ft 283 kts 354°
2026-05-09 10:24 50.49938 51.58646 14397 ft 282 kts 354°
2026-05-09 10:24 50.51899 51.58519 14077 ft 281 kts 354°
2026-05-09 10:24 50.53824 51.58394 13762 ft 280 kts 354°
2026-05-09 10:25 50.55771 51.58268 13405 ft 279 kts 354°
2026-05-09 10:25 50.57703 51.58143 13066 ft 278 kts 354°
2026-05-09 10:25 50.59628 51.58018 12738 ft 276 kts 354°
2026-05-09 10:25 50.61543 51.57893 12418 ft 274 kts 354°
2026-05-09 10:26 50.63442 51.57770 12110 ft 273 kts 354°
2026-05-09 10:26 50.65333 51.57647 11790 ft 271 kts 354°
2026-05-09 10:26 50.67215 51.57524 11477 ft 269 kts 354°
2026-05-09 10:26 50.69085 51.57402 11167 ft 268 kts 354°
2026-05-09 10:27 50.70941 51.57280 10858 ft 267 kts 354°
2026-05-09 10:27 50.72792 51.57159 10552 ft 265 kts 354°
2026-05-09 10:27 50.74635 51.57038 10238 ft 265 kts 354°
2026-05-09 10:27 50.76457 51.56920 10098 ft 257 kts 354°
2026-05-09 10:28 50.78219 51.56806 9919 ft 252 kts 354°
2026-05-09 10:28 50.79972 51.56691 9615 ft 251 kts 354°
2026-05-09 10:28 50.81711 51.56575 9333 ft 250 kts 354°
2026-05-09 10:28 50.83439 51.56462 9040 ft 248 kts 354°
2026-05-09 10:29 50.85163 51.56348 8751 ft 247 kts 354°
2026-05-09 10:29 50.86852 51.56236 8482 ft 245 kts 354°
2026-05-09 10:29 50.88552 51.56124 8209 ft 244 kts 354°
2026-05-09 10:29 50.90247 51.56012 7930 ft 243 kts 354°
2026-05-09 10:30 50.91925 51.55901 7654 ft 242 kts 354°
2026-05-09 10:30 50.93606 51.55790 7369 ft 241 kts 354°
2026-05-09 10:30 50.95278 51.55679 7092 ft 240 kts 354°
2026-05-09 10:30 50.96942 51.55569 6830 ft 239 kts 354°
2026-05-09 10:31 50.98594 51.55460 6557 ft 238 kts 354°
2026-05-09 10:31 51.00258 51.55349 6281 ft 238 kts 354°
2026-05-09 10:31 51.01913 51.55239 5990 ft 237 kts 354°
2026-05-09 10:31 51.03562 51.55130 5712 ft 237 kts 354°
2026-05-09 10:32 51.05207 51.55021 5446 ft 236 kts 354°
2026-05-09 10:32 51.06843 51.54912 5179 ft 235 kts 354°
2026-05-09 10:32 51.08475 51.54803 4888 ft 234 kts 354°
2026-05-09 10:32 51.10094 51.54695 4614 ft 232 kts 354°
2026-05-09 10:33 51.11673 51.54445 4323 ft 230 kts 342°
2026-05-09 10:33 51.13021 51.53121 4058 ft 230 kts 316°
2026-05-09 10:33 51.13873 51.51001 3940 ft 231 kts 295°
2026-05-09 10:33 51.14157 51.48440 3816 ft 243 kts 272°
2026-05-09 10:34 51.13906 51.45726 3711 ft 251 kts 265°
2026-05-09 10:34 51.13236 51.40202 3447 ft 256 kts 264°
2026-05-09 10:34 51.12904 51.37443 3301 ft 251 kts 264°
2026-05-09 10:35 51.12582 51.34750 3187 ft 245 kts 265°
2026-05-09 10:35 51.12265 51.32111 3058 ft 239 kts 263°
2026-05-09 10:35 51.11928 51.29557 2935 ft 236 kts 255°
2026-05-09 10:35 51.10981 51.27449 2815 ft 238 kts 218°
2026-05-09 10:36 51.09464 51.26587 2734 ft 232 kts 181°
2026-05-09 10:36 51.07947 51.27221 2631 ft 224 kts 148°
2026-05-09 10:36 51.06720 51.28650 2556 ft 214 kts 139°
2026-05-09 10:36 51.05577 51.30087 2435 ft 210 kts 137°
2026-05-09 10:37 51.04752 51.31878 2292 ft 194 kts 95°
2026-05-09 10:37 51.04941 51.33772 2233 ft 164 kts 48°
2026-05-09 10:37 51.05732 51.35025 2185 ft 165 kts 42°
2026-05-09 10:37 51.06459 51.36457 2065 ft 165 kts 47°
2026-05-09 10:38 51.07148 51.37842 2043 ft 158 kts 43°
2026-05-09 10:38 51.07799 51.39255 1932 ft 157 kts 49°
2026-05-09 10:38 51.08385 51.40535 1824 ft 150 kts 43°
2026-05-09 10:38 51.09038 51.41805 1808 ft 148 kts 43°
2026-05-09 10:39 51.09685 51.43112 1647 ft 152 kts 44°
2026-05-09 10:39 51.10330 51.44427 1436 ft 148 kts 46°
2026-05-09 10:39 51.10949 51.45697 1229 ft 143 kts 47°
2026-05-09 10:39 51.11553 51.46934 1063 ft 141 kts 44°
2026-05-09 10:40 51.12153 51.48180 894 ft 144 kts 49°
2026-05-09 10:40 51.12785 51.49467 673 ft 149 kts 46°
2026-05-09 10:40 51.13427 51.50770 494 ft 150 kts 47°
2026-05-09 10:40 51.14080 51.52109 297 ft 154 kts 49°
2026-05-09 10:41 51.14715 51.53416 126 ft 145 kts 44°
2026-05-09 10:41 51.15221 51.54420 122 ft 86 kts 52°
2026-05-09 10:41 51.15433 51.54856 123 ft 14 kts 52°
2026-05-09 10:41 51.15488 51.54952 122 ft 6 kts 18°
2026-05-09 10:42 51.15503 51.54981 120 ft 3 kts 94°
2026-05-09 10:42 51.15488 51.54989 122 ft 3 kts 204°
2026-05-09 10:42 51.15479 51.54958 120 ft 4 kts 246°
2026-05-09 10:42 51.15456 51.54902 121 ft 9 kts 233°
2026-05-09 10:43 51.15409 51.54807 122 ft 13 kts 231°
2026-05-09 10:43 51.15342 51.54674 121 ft 18 kts 231°
2026-05-09 10:43 51.15260 51.54506 125 ft 19 kts 232°
2026-05-09 10:43 51.15179 51.54340 122 ft 19 kts 231°
2026-05-09 10:44 51.15115 51.54198 122 ft 10 kts 251°
2026-05-09 10:44 51.15144 51.54104 119 ft 10 kts 318°
2026-05-09 10:44 51.15198 51.54034 122 ft 10 kts 322°
2026-05-09 10:44 51.15208 51.54022 125 ft 0 kts 322°
2026-05-09 10:46 51.15245 51.53977 125 ft 9 kts 322°
2026-05-09 10:46 51.15270 51.53950 125 ft 2 kts 335°
2026-05-09 10:46 51.15287 51.53953 125 ft 3 kts 25°
2026-05-09 10:46 51.15301 51.53973 122 ft 3 kts 42°
2026-05-09 10:47 51.15311 51.53995 125 ft 1 kts 55°
2026-05-09 10:47 51.15314 51.54001 125 ft 0 kts 54°